Погода в Калаче

Погода в Калаче : погода сейчас, прогноз погоды и архив. Всё, что Вы хотите узнать о погоде в Калаче!

Поиск расширенной информации на нашем сайте:

Другие новости

Новости СМИ2

Главная страница сайта

Новости сайта

03.07.2017

Напоминаем, что на нашем специализированном сайте Метеоцентр.Азия вы можете получить высокодетализированные автоматические прогнозы погоды по пунктам России, СНГ и мира в авиационном формате (включающие направление и скорость ветра, видимость, явления погоды, количество и форму облачности, нижнюю и верхнюю границу облачности).


Погода в Калаче - сегодня

Время (UTC), дата Ветер
(°,м/с) 
Видим.   Явления Облачность Т
(°С)
Тd
(°С)
f(%) Тe
(°С)
Pmin
(гПа)
dP
(гПа)
Po
(мм)
O2
(г/м3)
Тmin Tmax R s Состояние
почвы
03 18.07.18 230 (ЮЗ) 4000 м  ливневой дождь  10/10 300 м кучево-дожд. 
[Cb calv]
+17.7 +17.4 98 +32  996.6  -0.5  740  276  +17.7    26     
15 18.07.18 250 (З) 4{11}  10 км    9/8 600 м средняя 
[Sc|Ac cast]
+21.6 +17.9 79 +36  999.4  742  273    +22.6  14     
18 18.07.18 210 (ЮЗ) 10 км    10/10 600 м 
[Sc]
+20 +18.2 89 +35  1000.5  742  274           
21 18.07.18 тихо ()   10 км    ясно 
+18 +17.7 98 +32  1000.7  0.2  743  277           
00 19.07.18 220 (ЮЗ) 10 км    8/8 2000 м средняя 
[Ac lent]
+17.5 +16.7 95 +30  1001.3  0.6  743  278           
06 19.07.18 220 (ЮЗ) 20000 м    6/0 верхняя 
[Ci sp]
+23.3 +18.7 75 +39  1002  0.2  744  272           
09 19.07.18 200 (Ю) 20000 м    8/4 600 м верхняя 
[Cu med, cong|Ci fib]
+26.8 +17.6 57 +41  1002.1  0.2  744  269           
15 19.07.18 200 (Ю) 4{11}  20000 м  гроза без осадков  6/3 300 м кучево-дожд., верхняя 
[Cb calv|Ci fib]
+24.9 +17.6 64 +39  1002.6  -0.1  744  271    +29       
18 19.07.18 170 (Ю) 10 км  {гроза}  3/0 верхняя 
[Ci fib]
+21.4 +18.9 86 +38  1003  0.3  744  274           
21 19.07.18 120 (ЮВ) 10 км    ясно 
+18.2 +17.5 96 +34  1003.6  0.4  745  277           
00 20.07.18 100 (В) 10 км    3/3 2000 м средняя, верхняя 
[Ac lent|Ci fib]
+17.5 +17 97 +32  1004.1  0.5  745  278           
06 20.07.18 190 (Ю) 10 км    10/10 2000 м 
[Ac und]
+22.2 +18.6 80 +38  1004.2  0.3  745  273           
09 20.07.18 180 (Ю) 20000 м    8/4 300 м кучево-дожд., верхняя 
[Cb calv|Cs]
+24.1 +17.5 67 +38  1003.9  -0.3  745  272           
12 20.07.18 100 (В) 20000 м    9/4 300 м кучево-дожд., верхняя 
[Cb calv|Cc]
+26.4 +18.1 60 +41  1003.4  -0.4  745  270           
18 20.07.18 200 (Ю) 10 км    9/5 300 м кучево-дожд., верхняя 
[Cb calv|Ci fib]
+20.8 +19.5 92 +39  1003.7  0.7  745  274           
21 20.07.18 220 (ЮЗ) 10 км    8/3 2000 м средняя, верхняя 
[Ac lent|Ci sp]
+19.1 +18.6 97 +37  1003.5  -0.3  745  276           
03 21.07.18 тихо ()   4000 м  дымка  10/10 600 м 
[Sc]
+19.2 +18.9 98 +36  1003.4  -0.1  745  276  +18.9         
06 21.07.18 200 (Ю) 10 км    10/10 300 м кучево-дожд. 
[Cb calv]
+21.8 +19.9 89 +40  1003.9  0.6  745  273           
09 21.07.18 240 (ЮЗ) 20000 м    9/9 600 м 
[Sc]
+24.7 +19.6 73 +43  1003.7  -0.1  745  271           
18 21.07.18 тихо ()   4000 м  дымка{гроза, ливн. осадки}  9/5 600 м верхняя 
[Sc|Ci fib]
+21.8 +21.3 97 +44  1004  -0.1  745  273           
06 22.07.18 090 (В) 4000 м  дымка{туман}  3/0 верхняя 
[Cs]
+23.9 +21.3 85 +46  1004.5  -0.1  746  271           
09 22.07.18 270 (З) 20000 м    4/3 600 м верхняя 
[Cu med, cong|Ci sp]
+27.8 +20.2 63 +47  1003.7  -0.6  745  268           
21 22.07.18 090 (В) 10 км    10/10 600 м 
[Sc]
+19.6 +18 90 +35  1005.4  0.4  746  276           
06 23.07.18 110 (В) 20000 м    8/1 600 м верхняя 
[Cu hum|Ci sp]
+23.2 +19.5 80 +41  1005.4  0.2  746  272           
09 23.07.18 170 (Ю) 20000 м    8/4 300 м кучево-дожд., верхняя 
[Cb calv|Ci sp]
+26.6 +20.5 69 +47  1005.1  -0.1  746  269           
Время (UTC), дата Ветер
(°,м/с) 
Видим.   Явления Облачность Т
(°С)
Тd
(°С)
f(%) Тe
(°С)
Pmin
(гПа)
dP
(гПа)
Po
(мм)
O2
(г/м3)
Тmin Tmax R s Состояние
почвы

Для получения пояснительной информации подведите курсор к названию столбца.

ПОГОДА в Калаче - архив

Всё, что Вы хотите узнать о погоде в Калаче - удобно и подробно!

Выберите нужную дату (начиная с 1 января 2015* года) и нажмите кнопку "Найти".
Будут отображены архивные сводки погоды по пункту Калач, начиная с указанной даты.


Отображать данные в формате CSV (для использования в таблицах Excel)


Внимание! Наш архив погоды предназначен исключительно для личного некоммерческого использования в познавательных целях. Если Вам необходимы официальные справки о состоянии погоды (для производственных, юридических, коммерческих и т.п. целей), обращайтесь в органы Росгидромета.

*Примечание: данная дата относится к архиву по метеостанциям СССР (Россия, СНГ, Балтия).
Архив по метеостанциям Зарубежной Европы и Азии (кроме Китая) хранится 10 дней, по другим регионам земного шара (Китай, Африка, Америка, Австралия, Океания) - 1 день.

Калач - район местоположения метеостанции


Название, широта, долгота, высота метеостанции:
Калач 50.4°ш. 41.1°д. 92 м над ур. моря [Российская Федерация]

Дополнительная информация

В oтличие oт бoльшинства пoгoдных сайтoв мы публикуем пoдрoбную метеoинфoрмацию в детальнoм прoфессиoнальнoм фoрмате.

Характеристики температуры и влажнoсти вoздуха измеряются на высoте 2 м в тени вдали oт зданий и деревьев.
Скoрoсть ветра измеряется на высoте 10 м (на урoвне рoста челoвека скoрoсть ветра ниже в 1.5-2 раза). Если метеoстанция нахoдится в гoрoде или в лесу, тo скoрoсть ветра занижена на 2-4 м/с пo сравнению с oткрытым местoм. Скoрoсть ветра над акватoриями крупных рек и oзёр, а также на вершинах хoлмoв на 2-5 м/с выше, чем в oбычных услoвиях.
Атмoсфернoе давление в разных тoчках местнoсти мoжет значительнo oтличаться oт давления на метеoстанции, в зависимoсти oт услoвий рельефа (при пoдъёме на 10 м давление пoнижается примернo на 1 мм рт.ст.).